NOAA 16 DEB, 42429

Orbit data source: Space-Track

NOAA 16 DEB, 42429 is space debris in SSO originally from a launch on Thu, 21 Sep 2000 UTC launched from the Air Force Western Test Range (AFWTR). Debris objects in space refer to the collection of defunct objects orbiting the Earth. Examples of debris include non-operational satellites, rocket bodies, and fragments generated from explosions, collisions, or faulty payload assembly.

Loading next visibility...
Identifier
42429, 2000-055TZ
Orbit
SSO
Country
Flag of USUS
Related business
Manufacturer
Unknown
Mission
Spacecraft
Bus & Motor
Unknown
Mass
Unknown
Launch date (UTC)
2000-09-21 (26 years ago)
Launch vehicle
Unknown
Launch site
Air Force Western Test Range (AFWTR)
Object type
Payload
Rocket body
Debris
Shape & HBR
Unknown shape, 0.1 m
Radar Cross Section
Small (<0.1 m²)

Expand to show TLE details & history
Last TLE update: 2 days ago

TLE from 2 days ago
0 NOAA 16 DEB
1 42429U 00055TZ  26119.17275234  .00006563  00000-0  22800-2 0  9995
2 42429  98.8267 204.3626 0020625 313.9099  46.0382 14.35727886499225
Epoch: 2026-04-29T04:08Z
TLE epoch observation values (Epoch: 2026-04-29T04:08:45.802Z)
Latitude
-0.00006°
Longitude
-74.96575°
Altitude
765.356 km
Speed
7.477 km/s
True Right ascension
13h 37m 27s
True Declination
0° 00' 00"
Sunlit
Object was in full shadow at epoch
Visualization orbit readout
Latitude
Unknown
Longitude
Unknown
Altitude
Unknown
Speed
Unknown
Apparent Right ascension
Unknown
Apparent Declination
Unknown
Sunlit
N/A
Visualization observer readout
Local Sidereal Time
06:43:55
Azimuth
Unknown
Elevation
Unknown
Doppler factor
Unknown
Orbital elements
Apogee altitude
784.534 km
Perigee altitude
755.049 km
Semi-major axis
7,147.929 km
Eccentricity
0.00206
Inclination
98.8267°
RAAN
204.3626°
Arg. of periapsis
313.9099°
True anomaly
46.20863°
Mean anomaly
46.0382°
Eccentric anomaly
46.12338°
Mean motion
3.59147 °/min
Orbital period
100.24 mins
BSTAR
0.00228
Loading maneuver chart data...
Computing Atmospheric mass density...
Loading historical data...
Loading historical data...
Loading historical data...
Loading historical data...
Loading historical data...
Loading historical data...
Loading historical data...

Documentation

Showing up to 5 results
|